SCP
0 0 0 0 0 0 0 0 0 0 0 0 0 0 0 0 0 0 0 0 0 0 0 0 0 0 0 0 0 0 0 0 0 0 0 0 0 0 0 0 0 0 0
0 0 0 0 0 0 0 0 0 0 0 0 0 0 0 0 0 0 0 0 0 0 0 0 0 0 0 0 0 0 0 0 0 0 0 0 0 0 0 0 0 0 0
0 0 0 0 0 0 0 0 0 0 0 0 0 0 0 0 0 0 0 0 0 0 0 0 0 0 0 0 0 0 0 0 0 0 0 0 0 0 0 0 0 0 0
0 0 0 0 0 0 0 0 0 0 0 0 0 0 0 0 0 0 0 0 0 0 0 0 0 0 0 0 0 0 0 0 0 0 0 0 0 0 0 0 0 0 0
0 0 0 0 0 0 0 0 0 0 0 0 0 0 0 0 0 0 0 0 0 0 0 0 0 0 0 0 0 0 0 0 0 0 0 0 0 0 0 0 0 0 0
0 0 0 0 0 0 0 0 0 0 0 0 0 0 0 0 0 0 0 0 0 0 0 0 0 0 0 0 0 0 0 0 0 0 0 0 0 0 0 0 0 0 0
0 0 0 0 0 0 0 0 0 0 0 0 0 0 0 0 0 0 0 0 0 0 0 0 0 0 0 0 0 0 0 0 0 0 0 0 0 0 0 0 0 0 0
0 0 0 0 0 0 0 0 0 0 0 0 0 0 0 0 0 0 0 0 0 0 0 0 0 0 0 0 0 0 0 0 0 0 0 0 0 0 0 0 0 0 0
0 0 0 0 0 0 0 0 0 0 0 0 0 0 0 0 0 0 0 0 0 0 0 0 0 0 0 0 0 0 0 0 0 0 0 0 0 0 0 0 0 0 0
0 0 0 0 0 0 0 0 0 0 0 0 0 0 0 0 0 0 0 0 0 0 0 0 0 0 0 0 0 0 0 0 0 0 0 0 0 0 0 0 0 0 0
0 0 0 0 0 0 0 0 0 0 0 0 0 0 0 0 0 0 0 0 0 0 0 0 0 0 0 0 0 0 0 0 0 0 0 0 0 0 0 0 0 0 0
0 0 0 0 0 0 0 0 0 0 0 0 0 0 0 0 0 0 0 0 0 0 0 0 0 0 0 0 0 0 0 0 0 0 0 0 0 0 0 0 0 0 0
0 0 0 0 0 0 0 0 0 0 0 0 0 0 0 0 0 0 0 0 0 0 0 0 -0 0 0 0 0 0 0 0 0 0 0 0 0 0 0 0 0 0 0
0 0 0 0 0 0 0 0 0 0 0 0 0 0 0 0 0 0 0 0 0 0 0 0 -0 -0 0 0 0 0 0 0 0 0 0 0 0 0 0 0 0 0 0
0 0 0 0 0 0 0 0 0 0 0 0 0 0 0 0 0 0 0 0 0 0 0 0 0 -0 0 0 0 0 0 0 0 0 0 0 0 0 0 0 0 0 0
0 0 0 0 0 0 0 0 0 0 0 0 0 0 0 0 0 0 0 0 0 0 0 0 0 0 0 0 0 0 0 0 0 0 0 0 0 0 0 0 0 0 0
0 0 0 0 0 0 0 0 0 0 0 0 0 0 0 0 0 0 0 0 0 0 0 0 0 0 0 0 0 0 0 0 0 0 0 0 0 0 0 0 0 0 0
0 0 0 0 0 0 0 0 0 0 0 0 0 0 0 0 0 0 0 0 0 0 0 0 0 0 0 0 0 0 0 0 0 0 0 0 0 0 0 0 0 0 0
0 0 0 0 0 0 0 0 0 0 0 0 0 0 0 0 0 0 0 0 0 0 0 0 0 0 0 0 0 0 0 0 0 0 0 0 0 0 0 0 0 0 0
0 0 0 0 0 0 0 0 0 0 0 0 0 0 0 0 0 0 0 0 0 0 0 0 0 0 0 0 0 0 0 0 0 0 0 0 0 0 0 0 0 0 0
0 0 0 0 0 0 0 0 0 0 0 0 0 0 0 0 0 0 0 0 0 0 0 0 0 0 0 0 0 0 0 0 0 0 0 0 0 0 0 0 0 0 0
0 0 0 0 0 0 0 0 0 0 0 0 0 0 0 0 0 0 0 0 0 0 0 0 0 0 0 0 0 0 0 0 0 0 0 0 0 0 0 0 0 0 0
0 0 0 0 0 0 0 0 0 0 0 0 0 0 0 0 0 0 0 0 0 0 0 0 0 0 0 0 0 0 0 0 0 0 0 0 0 0 0 0 0 0 0
0 0 0 0 0 0 0 0 0 0 0 0 0 0 0 0 0 0 0 0 0 0 0 0 0 0 0 0 0 0 0 0 0 0 0 0 0 0 0 0 0 0 0
0 0 0 0 0 0 0 0 0 0 0 0 0 0 0 0 0 0 0 0 0 0 0 0 0 0 0 0 0 0 0 0 0 0 0 0 0 0 0 0 0 0 0
0 0 0 0 0 0 0 0 0 0 0 0 0 0 0 0 0 0 0 0 0 0 0 0 0 0 0 0 0 0 0 0 0 0 0 0 0 0 0 0 0 0 0
Wind_Speed
1 1 1 1 2 2 2 2 2 3 3 3 3 4 4 3 3 2 2 5 6 7 7 8 8 9 9 9 10 10 10 9 9 9 9 8 8 8 9 9 9 9 9
1 1 1 1 1 2 2 3 3 3 3 3 3 3 3 3 3 3 2 2 4 5 6 7 7 8 8 8 9 10 9 9 9 8 9 8 8 7 7 8 8 8 8
1 1 2 2 2 2 2 2 3 3 3 3 3 3 3 3 3 3 2 2 1 3 4 6 6 7 7 7 8 9 9 9 9 8 8 7 7 7 7 7 7 7 6
1 1 2 2 2 2 2 3 3 4 3 3 3 2 2 2 3 3 2 2 1 1 2 4 4 5 6 6 7 8 8 8 8 8 7 7 6 6 6 6 6 6 6
2 2 2 2 3 2 3 3 2 4 4 4 3 2 1 1 2 3 3 2 2 1 1 2 3 3 3 5 6 7 7 8 8 7 7 7 6 6 5 5 5 5 4
2 2 2 2 3 3 3 3 3 3 4 4 4 2 1 1 1 2 2 2 1 2 1 1 1 1 2 3 4 5 6 7 7 7 7 7 6 5 5 5 4 4 3
2 3 2 2 2 3 3 4 4 4 4 4 3 2 1 1 1 1 1 2 1 1 1 1 1 1 0 1 2 4 4 6 6 7 7 7 6 5 5 5 4 4 3
2 3 3 3 3 3 3 4 4 3 3 4 4 4 2 0 0 0 1 2 2 1 1 1 1 1 1 0 1 2 2 3 5 6 7 7 6 6 5 5 5 4 4
2 2 3 3 3 4 4 4 5 4 4 3 4 4 4 4 1 1 1 2 2 2 1 1 1 1 1 0 0 1 1 2 3 4 5 6 6 6 6 5 5 5 4
2 2 3 3 3 4 4 5 4 3 5 5 3 2 2 4 4 2 1 1 2 2 2 1 2 1 1 1 1 1 1 2 3 4 4 5 6 6 6 5 5 5 5
2 2 3 3 3 3 4 5 4 4 4 5 4 2 2 2 2 3 3 3 2 2 2 2 2 2 2 2 2 2 2 2 3 4 4 5 5 6 6 6 6 6 6
2 2 3 3 4 3 4 5 5 5 5 4 3 3 4 4 3 3 3 4 3 2 2 2 2 2 2 2 3 2 2 3 3 4 4 4 4 5 6 7 6 6 6
2 3 3 3 4 4 4 4 4 5 5 6 5 4 3 3 3 2 3 3 2 1 2 2 3 3 2 2 2 3 3 4 4 4 4 4 4 4 4 5 6 7 7
3 4 4 4 4 4 4 4 3 5 5 5 5 4 3 3 3 3 3 4 2 2 2 3 2 3 3 2 3 3 3 4 4 4 5 4 3 3 3 4 5 5 6
3 4 4 4 4 4 5 5 4 5 5 5 5 5 4 3 3 2 3 4 4 4 4 3 2 3 3 2 3 2 2 4 5 4 4 4 3 3 3 4 4 4 5
4 4 4 4 4 4 5 5 5 5 6 5 4 5 5 3 3 3 3 2 2 3 4 3 2 2 3 2 2 2 2 3 4 4 4 4 3 3 4 4 4 4 4
4 5 4 4 5 5 5 5 6 6 7 6 5 6 6 5 4 3 3 3 2 2 3 2 1 1 2 2 2 2 2 2 3 4 4 4 4 4 4 4 4 5 5
4 5 5 5 5 5 6 6 7 7 7 8 7 7 7 5 5 4 4 4 3 3 3 3 2 2 3 3 3 2 2 1 2 3 4 4 4 4 4 4 5 5 5
5 5 5 5 6 6 6 6 7 8 8 8 8 8 8 7 6 5 5 5 3 2 2 3 2 2 2 2 2 2 2 1 2 2 3 4 4 4 4 4 5 5 5
5 5 6 6 6 6 6 6 7 8 8 8 8 8 8 8 8 7 6 6 5 4 3 3 3 2 2 2 2 2 2 2 2 2 3 2 3 3 4 4 4 4 5
6 5 5 6 6 6 6 7 7 8 8 7 7 7 8 9 9 8 6 6 6 5 4 4 4 3 3 3 3 2 2 2 2 2 1 2 2 2 3 4 4 5 5
5 5 6 6 6 6 7 9 7 7 7 8 8 7 7 8 9 10 10 9 9 8 7 5 5 5 5 4 3 3 2 1 3 2 2 3 2 3 3 3 4 5 5
5 5 6 6 7 8 9 9 9 7 7 7 8 7 6 7 8 7 8 8 8 8 8 6 6 7 6 6 5 4 4 3 3 2 1 3 2 3 3 4 6 6 6
4 5 5 5 5 6 8 8 8 7 6 7 7 8 8 7 8 8 6 6 5 5 7 6 6 6 5 5 6 5 4 2 2 2 2 2 2 3 3 3 5 6 6
4 5 5 5 6 6 7 8 7 5 5 6 6 6 7 7 9 9 7 7 6 5 5 6 6 5 5 6 6 4 3 3 3 2 2 2 2 2 3 3 4 6 6
4 4 5 5 5 6 7 8 8 5 5 4 4 5 8 8 9 10 7 7 7 6 4 3 4 4 4 5 7 6 6 4 2 3 2 2 1 1 2 2 2 2 4
Wind_Direction
152 165 173 169 167 158 157 146 140 134 127 120 121 122 120 119 116 106 104 115 120 124 126 129 132 132 130 131 128 126 123 120 119 119 116 113 111 109 104 99 94 89 86
165 171 170 172 165 166 163 154 153 144 136 130 126 121 124 127 123 120 111 117 115 125 132 136 139 140 138 135 132 130 130 127 122 122 122 118 116 116 112 107 100 96 92
166 184 175 176 173 166 154 147 142 135 131 129 125 124 124 126 128 127 123 120 121 117 129 134 139 145 145 143 139 139 139 135 130 126 124 123 120 121 120 114 109 104 99
191 185 188 185 180 167 156 157 153 142 143 141 132 128 125 130 133 135 128 123 117 105 118 120 121 136 149 152 151 145 146 144 141 138 133 128 124 123 124 121 116 111 106
197 195 199 192 172 164 168 168 164 156 154 148 143 133 129 138 139 136 128 127 129 126 123 113 108 106 134 150 156 154 155 156 154 152 146 142 137 135 135 134 130 124 118
201 193 199 198 176 165 172 170 169 164 159 154 136 116 110 129 134 145 150 141 132 130 125 116 121 90 87 144 150 155 159 165 166 163 160 158 155 151 151 147 144 141 137
215 199 207 199 184 178 181 176 170 166 165 145 123 107 51 59 117 151 151 142 146 149 133 129 129 123 112 134 147 146 152 164 175 177 174 172 172 170 170 172 172 165 156
227 210 198 200 191 178 179 180 172 172 175 169 151 140 141 245 312 182 170 166 170 158 154 153 147 157 141 199 171 150 151 165 178 186 185 185 184 185 187 188 186 182 179
224 224 207 205 196 186 190 194 185 177 178 187 172 158 162 188 189 229 219 185 176 169 181 180 179 177 168 160 271 203 159 182 186 188 192 192 192 197 199 198 198 196 196
239 225 219 213 208 195 191 200 197 189 178 185 189 183 169 149 157 173 236 227 199 190 189 189 193 200 194 189 237 256 208 213 214 214 212 208 202 203 206 210 212 212 210
269 235 221 213 215 208 197 198 195 193 187 190 188 179 153 138 150 165 188 204 215 213 198 195 200 206 207 205 212 252 221 215 230 235 229 222 219 216 217 220 223 223 223
288 267 237 219 214 216 205 204 199 198 193 191 193 188 181 174 178 172 178 189 206 217 207 204 208 211 214 210 215 237 235 223 231 242 239 233 234 232 229 228 229 232 233
281 271 258 234 221 216 212 206 199 199 193 191 196 199 196 194 177 175 161 173 199 220 210 221 220 213 213 208 219 227 233 225 226 237 241 241 243 244 240 236 237 237 237
254 257 257 239 233 219 211 201 203 202 194 194 202 201 196 201 186 179 171 163 176 218 223 226 221 213 214 208 221 212 232 231 223 228 238 246 256 256 253 247 245 245 237
252 252 250 243 230 220 210 201 203 198 191 198 203 204 201 201 197 191 177 174 175 197 219 215 207 213 210 202 216 208 226 235 223 223 234 243 250 256 257 252 247 245 240
248 245 244 242 228 222 211 203 203 199 193 198 201 202 205 202 198 189 186 192 192 185 212 214 218 212 201 209 216 210 227 252 233 226 234 240 241 251 254 250 249 242 238
246 244 242 242 232 224 214 205 202 197 198 200 203 204 207 200 196 195 191 191 202 191 203 227 227 227 202 206 225 224 234 242 238 229 234 239 243 248 254 251 248 244 241
241 241 240 239 237 228 217 208 204 206 203 201 205 205 207 199 197 197 192 198 203 200 186 203 218 210 219 212 216 217 235 250 256 245 245 247 247 249 254 256 256 252 243
242 242 239 239 239 232 222 217 209 209 210 207 205 205 204 196 200 200 195 197 200 199 185 182 205 213 220 212 209 227 228 254 274 256 250 251 251 256 261 262 263 258 251
238 237 238 239 239 237 229 223 216 211 210 210 209 207 204 201 201 199 199 199 193 190 186 182 188 197 208 212 199 210 232 253 272 267 262 265 271 274 279 275 272 267 259
241 239 241 243 242 238 230 220 220 216 209 208 209 208 208 208 207 203 203 196 191 191 188 191 193 195 202 198 208 205 229 257 268 227 249 268 263 261 265 271 273 269 263
241 239 240 241 240 241 239 228 224 216 210 207 208 209 207 205 209 212 214 208 199 193 193 195 201 202 207 206 199 201 204 214 252 222 226 263 237 253 259 254 269 269 265
243 241 244 241 241 243 240 230 226 220 213 208 208 204 204 207 203 202 208 211 210 209 204 198 201 207 201 196 191 199 209 220 242 225 221 255 239 259 262 263 267 262 262
245 243 246 243 247 248 237 231 226 221 214 210 209 206 203 201 201 197 194 200 204 211 212 207 209 211 206 195 195 201 206 216 271 237 201 243 248 264 280 261 256 259 261
256 252 251 247 246 251 241 233 226 218 216 212 209 207 204 203 203 198 191 197 202 213 220 218 221 222 214 205 193 172 178 196 248 244 206 212 241 279 274 261 255 264 268
257 260 259 252 246 247 244 235 226 210 211 211 205 204 208 207 201 199 196 195 202 207 197 205 218 224 212 204 200 194 188 201 217 234 206 191 216 285 285 260 250 259 264